[[{"header":{"parameterUnit":"m.s-1","parameterCategory":1,"la1":30.2991,"la2":30.254,"lo1":-89.0895,"lo2":-89.0444,"dy":0.0017,"dx":0.0017,"nx":28,"ny":28,"refTime":"2025-06-01T09:00:00:Z","depth":0,"parameterNumber":2,"parameterNumberName":"U-component_of_WINDS"},"data":[0,0,0,0,0,0,0,0,0,0,0,0,0,0,0,0,0,0,0,0,0,0,0,0,0,0,0,0,0,0,0,0,0,0,0,0,0,0,0,0,0,0,0,0,0,0,0,0,0,0,0,0,0,0,0,0,0,0,-2.4006,-2.4006,0,-2.4027,-2.4027,-2.4027,-2.397,-2.3968,-2.3967,-2.3965,-2.3986,-2.3988,-2.399,0,0,0,0,0,0,0,0,0,0,0,0,0,-2.3916,-2.3918,-2.4006,-2.4006,-2.4006,-2.4027,-2.4027,-2.4027,-2.397,-2.3968,-2.3966,-2.3964,-2.3985,-2.3988,-2.3991,0,0,0,0,0,0,0,0,0,0,0,0,0,-2.3948,-2.3919,-2.4006,-2.398,-2.3978,-2.4027,-2.4027,-2.4027,-2.3971,-2.3968,-2.3966,-2.3963,-2.3985,-2.3988,-2.3991,-2.4064,0,0,-2.4001,-2.4003,0,0,0,0,0,0,0,0,-2.3946,-2.3951,-2.3984,-2.3982,-2.398,-2.3993,-2.4003,-2.404,-2.3972,-2.3974,-2.3965,-2.3962,-2.3991,-2.3993,-2.4003,-2.4065,-2.4066,-2.4001,-2.4003,-2.4005,-2.4006,0,0,0,0,0,0,0,-2.3944,-2.395,-2.4014,-2.3984,-2.3982,-2.3968,-2.3969,-2.401,-2.3997,-2.3973,-2.3969,-2.3973,-2.3989,-2.4,-2.4003,-2.4067,-2.4001,-2.4004,-2.4006,-2.4008,-2.419,-2.4192,0,0,0,0,0,0,-2.3945,-2.3949,-2.4013,-2.4015,-2.3956,-2.3972,-2.3973,-2.3992,-2.3996,-2.3994,-2.3975,-2.397,-2.3996,-2.3999,-2.4004,-2.4089,-2.4005,-2.4008,-2.401,-2.4187,-2.419,-2.4193,0,0,0,0,0,0,-2.3943,-2.3951,-2.4012,-2.398,-2.3987,-2.3976,-2.3997,-2.3993,-2.4004,-2.3997,-2.3995,-2.3988,-2.3994,-2.3999,-2.405,-2.4089,-2.4009,-2.4012,-2.4184,-2.4188,-2.4192,-2.4261,0,0,0,0,0,0,-2.3941,-2.3951,-2.3979,-2.3982,-2.3989,-2.4059,-2.3999,-2.3996,-2.401,-2.4004,-2.4009,-2.4008,-2.3992,-2.4045,-2.4053,-2.4092,-2.4015,-2.418,-2.4185,-2.4191,-2.4255,-2.4267,-2.4278,0,0,0,0,0,-2.3938,-2.3998,-2.3981,-2.3989,-2.4024,-2.4061,-2.4065,-2.4046,-2.4014,-2.4041,-2.4037,-2.4007,-2.4084,-2.4051,-2.4059,-2.41,-2.4177,-2.4184,-2.419,-2.425,-2.4265,-2.4277,0,0,0,0,0,0,-2.4001,-2.3998,-2.3979,-2.4041,-2.4052,-2.4051,-2.4086,-2.4062,-2.4082,-2.4075,-2.4051,-2.4052,-2.4107,-2.4109,-2.4072,-2.4171,-2.4125,-2.4133,-2.4168,-2.4182,-2.4193,-2.4191,-2.4018,0,0,0,0,0,-2.4022,-2.4052,-2.4048,-2.4104,-2.411,-2.4097,-2.4113,-2.4097,-2.4107,-2.4111,-2.411,-2.412,-2.4146,-2.4164,-2.4188,-2.4256,-2.4256,-2.4288,-2.4299,-2.4308,-2.4316,-2.4351,-2.4365,-2.4214,-2.4214,-2.4214,0,0,-2.4065,-2.4068,-2.4089,-2.4116,-2.4122,-2.4154,-2.4101,-2.4137,-2.416,-2.4116,-2.4164,-2.4164,-2.4174,-2.4233,-2.4259,-2.4236,-2.4357,-2.4316,-2.4324,-2.4326,-2.4359,-2.4373,-2.4385,-2.4219,-2.4218,-2.4217,0,0,-2.4161,-2.4167,-2.4213,-2.422,-2.423,-2.4221,-2.4233,-2.4236,-2.4234,-2.4281,-2.4248,-2.4276,-2.4322,-2.433,-2.434,-2.4439,-2.4412,-2.4448,-2.4505,-2.454,-2.4552,-2.4562,-2.4597,-2.4609,-2.4455,-2.4455,-2.4455,0,-2.4214,-2.4261,-2.424,-2.4278,-2.4291,-2.4252,-2.4299,-2.4307,-2.4324,-2.4334,-2.4308,-2.4364,-2.4368,-2.4429,-2.4453,-2.4463,-2.4474,-2.4446,-2.4552,-2.4562,-2.4571,-2.4604,-2.4617,-2.4459,-2.4459,-2.4458,-2.4458,0,-2.4325,-2.4358,-2.4395,-2.4412,-2.4429,-2.4472,-2.4456,-2.4476,-2.4459,-2.4453,-2.4501,-2.4505,-2.4528,-2.4542,-2.4526,-2.46,-2.4585,-2.4556,-2.4509,-2.459,-2.462,-2.4633,-2.4465,-2.4464,-2.4463,-2.4462,0,0,-2.4461,-2.4466,-2.448,-2.4487,-2.4495,-2.452,-2.456,-2.4583,-2.46,-2.4614,-2.4647,-2.4686,-2.4659,-2.4671,-2.4655,-2.4686,-2.4763,-2.4652,-2.4652,-2.4672,-2.4844,-2.4865,-2.488,-2.4746,-2.4748,-2.475,-2.4843,0,-2.4555,-2.4624,-2.4606,-2.4674,-2.4704,-2.4668,-2.4703,-2.4711,-2.4707,-2.4731,-2.4726,-2.4754,-2.4717,-2.4723,-2.4752,-2.4747,-2.4797,-2.474,-2.4775,-2.4777,-2.4773,-2.4896,-2.4919,-2.5006,-2.4854,-2.4856,-2.4858,0,-2.4673,-2.4691,-2.4763,-2.4765,-2.4777,-2.4809,-2.4828,-2.4852,-2.4861,-2.4856,-2.4869,-2.4847,-2.4886,-2.484,-2.4893,-2.4856,-2.4869,-2.4869,-2.4872,-2.4873,-2.4822,-2.49,-2.5034,-2.5047,-2.4876,-2.4875,-2.4874,0,-2.4764,-2.4806,-2.4854,-2.4861,-2.4866,-2.4889,-2.4892,-2.4898,-2.4913,-2.493,-2.4939,-2.4961,-2.4972,-2.4989,-2.4974,-2.4942,-2.503,-2.4982,-2.5026,-2.5026,-2.5045,-2.5044,-2.5182,-2.5055,-2.5055,-2.5055,-2.5055,0,-2.487,-2.4915,-2.4894,-2.4924,-2.4973,-2.4952,-2.5001,-2.5,-2.5006,-2.5034,-2.5005,-2.5032,-2.501,-2.5035,-2.5023,-2.5069,-2.5075,-2.5071,-2.5067,-2.5073,-2.5074,-2.5081,-2.5074,-2.5058,-2.5058,-2.5057,-2.5056,0,-2.498,-2.4968,-2.5017,-2.5018,-2.5019,-2.5055,-2.5055,-2.5082,-2.5075,-2.5111,-2.5119,-2.5108,-2.5136,-2.5122,-2.5152,-2.5144,-2.5203,-2.5191,-2.52,-2.5196,-2.524,-2.5236,-2.5387,-2.5406,-2.5268,-2.5269,-2.527,0,-2.5048,-2.5082,-2.5085,-2.5102,-2.5107,-2.5135,-2.515,-2.513,-2.5146,-2.5159,-2.5185,-2.521,-2.5229,-2.5276,-2.5271,-2.5293,-2.5281,-2.5333,-2.5285,-2.5289,-2.5281,-2.5279,-2.5282,-2.5342,-2.5344,-2.5345,-2.5346,0,-2.517,-2.5163,-2.5185,-2.5206,-2.5224,-2.5239,-2.5252,-2.5267,-2.5248,-2.5268,-2.5296,-2.5311,-2.5341,-2.5367,-2.5386,-2.5389,-2.5365,-2.5362,-2.5373,-2.5379,-2.5382,-2.538,-2.5225,-2.5358,-2.5357,-2.5356,-2.5355,-2.5355,-2.5261,-2.5289,-2.5296,-2.5321,-2.5329,-2.5341,-2.5366,-2.5362,-2.5386,-2.5408,-2.5395,-2.5428,-2.5436,-2.5459,-2.5465,-2.5491,-2.547,-2.5487,-2.5491,-2.5495,-2.55,-2.5379,-2.5494,-2.5494,-2.5494,-2.5493,-2.5493,0,-2.5381,-2.5383,-2.5407,-2.5426,-2.5446,-2.5421,-2.5434,-2.5452,-2.5482,-2.5491,-2.551,-2.5543,-2.5567,-2.5564,-2.5586,-2.5607,-2.5597,-2.5614,-2.5612,-2.5613,-2.5518,-2.5505,-2.5622,-2.5622,-2.5622,-2.5622,-2.5622,-2.5622,-2.5446,-2.5492,-2.5485,-2.5533,-2.5535,-2.5567,-2.5577,-2.5588,-2.5595,-2.5632,-2.5652,-2.565,-2.5654,-2.5676,-2.5698,-2.5696,-2.5705,-2.5727,-2.5721,-2.5632,-2.5619,-2.5607,-2.5595,-2.5729,-2.5729,-2.5813,-2.5814,-2.5815]},{"header":{"parameterUnit":"m.s-1","parameterCategory":1,"la1":30.2991,"la2":30.254,"lo1":-89.0895,"lo2":-89.0444,"dy":0.0017,"dx":0.0017,"nx":28,"ny":28,"refTime":"2025-06-01T09:00:00:Z","depth":0,"parameterNumber":3,"parameterNumberName":"V-component_of_WINDS"},"data":[0,0,0,0,0,0,0,0,0,0,0,0,0,0,0,0,0,0,0,0,0,0,0,0,0,0,0,0,0,0,0,0,0,0,0,0,0,0,0,0,0,0,0,0,0,0,0,0,0,0,0,0,0,0,0,0,0,0,2.0817,2.0817,0,2.0807,2.0807,2.0806,2.0771,2.077,2.0769,2.0769,2.0758,2.0758,2.0758,0,0,0,0,0,0,0,0,0,0,0,0,0,2.0806,2.0806,2.0817,2.0817,2.0817,2.0807,2.0807,2.0806,2.0771,2.077,2.0769,2.0768,2.0757,2.0758,2.0758,0,0,0,0,0,0,0,0,0,0,0,0,0,2.0805,2.0806,2.0817,2.0798,2.0796,2.0807,2.0807,2.0806,2.0771,2.077,2.0769,2.0768,2.0757,2.0758,2.0758,2.0786,0,0,2.0761,2.0761,0,0,0,0,0,0,0,0,2.0805,2.0805,2.0801,2.0799,2.0797,2.0789,2.0798,2.08,2.0772,2.0781,2.0769,2.0767,2.0769,2.0769,2.0769,2.0786,2.0785,2.0761,2.0761,2.0761,2.0761,0,0,0,0,0,0,0,2.0805,2.0805,2.0813,2.0801,2.0799,2.079,2.0788,2.0798,2.0782,2.078,2.0777,2.0777,2.0768,2.0769,2.0769,2.0785,2.0761,2.0761,2.0762,2.0762,2.0823,2.0824,0,0,0,0,0,0,2.0808,2.0806,2.0813,2.0813,2.0798,2.0791,2.0789,2.0793,2.0781,2.0779,2.0778,2.0775,2.0768,2.0768,2.0768,2.0799,2.0761,2.0762,2.0762,2.0821,2.0823,2.0824,0,0,0,0,0,0,2.0808,2.0809,2.0814,2.0808,2.0808,2.0792,2.0797,2.0793,2.0794,2.078,2.0776,2.0782,2.0767,2.0767,2.0782,2.0798,2.0762,2.0763,2.082,2.0822,2.0824,2.0861,0,0,0,0,0,0,2.0807,2.0809,2.082,2.0809,2.0809,2.0828,2.0798,2.0794,2.0795,2.0792,2.0783,2.078,2.0766,2.0781,2.0782,2.0798,2.0763,2.0818,2.0821,2.0823,2.0858,2.0864,2.0869,0,0,0,0,0,2.0807,2.0831,2.082,2.0822,2.0822,2.0829,2.0829,2.0813,2.0797,2.0807,2.0798,2.078,2.0796,2.0783,2.0784,2.08,2.0817,2.082,2.0823,2.0856,2.0863,2.0869,0,0,0,0,0,0,2.0844,2.0829,2.0817,2.0838,2.0835,2.0823,2.0836,2.0821,2.0822,2.0819,2.0798,2.0796,2.0814,2.0809,2.0794,2.0826,2.0804,2.0807,2.0828,2.0835,2.084,2.084,2.0764,0,0,0,0,0,2.0855,2.0862,2.0849,2.0868,2.0867,2.0852,2.0855,2.0842,2.0838,2.0836,2.0828,2.0825,2.0828,2.0832,2.0835,2.0858,2.0854,2.0869,2.0875,2.0879,2.0881,2.0892,2.0898,2.0833,2.0833,2.0833,0,0,2.0877,2.0869,2.0875,2.0876,2.0872,2.0879,2.0851,2.086,2.0865,2.0838,2.0851,2.0845,2.0839,2.0858,2.0865,2.0854,2.0899,2.0882,2.0886,2.0886,2.0895,2.0901,2.0907,2.0835,2.0835,2.0834,0,0,2.092,2.0916,2.0931,2.0928,2.0922,2.0911,2.0915,2.0905,2.09,2.0913,2.0892,2.0897,2.0905,2.0901,2.0901,2.0942,2.0925,2.0944,2.0971,2.0981,2.0986,2.099,2.1003,2.1008,2.0947,2.0947,2.0947,0,2.0948,2.0958,2.0941,2.0951,2.0951,2.0927,2.0942,2.0939,2.0935,2.0935,2.0923,2.0931,2.0926,2.0942,2.0952,2.0953,2.0956,2.0944,2.0987,2.0991,2.0995,2.1007,2.1012,2.0949,2.0949,2.0948,2.0948,0,2.0992,2.1,2.1013,2.1009,2.101,2.1023,2.1007,2.1011,2.0998,2.0989,2.1002,2.0994,2.0995,2.0998,2.0986,2.1013,2.1006,2.099,2.0967,2.1003,2.1014,2.1019,2.0952,2.0951,2.0951,2.095,0,0,2.1058,2.1044,2.1049,2.1046,2.1038,2.1043,2.1054,2.1054,2.1057,2.1055,2.1063,2.107,2.1055,2.1054,2.1042,2.1051,2.1082,2.1034,2.1034,2.1042,2.1109,2.112,2.1126,2.1072,2.1073,2.1073,2.1109,0,2.1098,2.1116,2.11,2.1121,2.1127,2.1103,2.1113,2.1109,2.11,2.1103,2.1094,2.1098,2.108,2.1079,2.1087,2.1077,2.1095,2.1074,2.1078,2.1078,2.1078,2.1132,2.1143,2.1177,2.1113,2.1114,2.1115,0,2.1147,2.1146,2.1167,2.1156,2.1158,2.1167,2.1165,2.117,2.1164,2.1157,2.1156,2.114,2.115,2.1128,2.114,2.1126,2.1127,2.1122,2.1123,2.1121,2.1098,2.113,2.1188,2.1192,2.1122,2.1121,2.1121,0,2.1191,2.1195,2.1208,2.1207,2.1195,2.1201,2.1197,2.119,2.1191,2.1189,2.1189,2.1189,2.1189,2.1189,2.1173,2.116,2.1187,2.1164,2.118,2.118,2.1186,2.1185,2.1243,2.1189,2.1189,2.1189,2.1189,0,2.1236,2.1249,2.1227,2.1235,2.1249,2.1231,2.1246,2.1239,2.1232,2.1238,2.1218,2.1224,2.1204,2.1207,2.1195,2.1206,2.1206,2.12,2.1196,2.1201,2.1202,2.12,2.1197,2.119,2.119,2.119,2.1189,0,2.1287,2.1273,2.1285,2.1273,2.127,2.1281,2.127,2.1276,2.1266,2.1273,2.1274,2.1258,2.1261,2.1246,2.1246,2.1238,2.1254,2.1247,2.1256,2.1253,2.1269,2.1267,2.1326,2.1332,2.1276,2.1277,2.1277,0,2.1316,2.1326,2.1314,2.1316,2.1312,2.1316,2.1317,2.1299,2.13,2.1294,2.1301,2.1302,2.1302,2.1307,2.1295,2.1295,2.1287,2.1307,2.1286,2.129,2.1285,2.1284,2.1284,2.1311,2.1312,2.1313,2.1313,0,2.1368,2.1361,2.1362,2.1361,2.1362,2.1361,2.1358,2.136,2.1341,2.1344,2.1346,2.1346,2.1345,2.1346,2.1343,2.1338,2.1322,2.132,2.1323,2.1327,2.1331,2.1328,2.1266,2.1318,2.1318,2.1318,2.1317,2.1317,2.1408,2.1415,2.1408,2.141,2.1405,2.1403,2.1408,2.1398,2.14,2.1398,2.1388,2.1392,2.1384,2.1379,2.1375,2.1377,2.1367,2.1373,2.1373,2.1375,2.1377,2.1332,2.1377,2.1377,2.1377,2.1376,2.1376,0,2.1458,2.1452,2.1454,2.145,2.1452,2.1437,2.1433,2.1434,2.1438,2.1433,2.1433,2.1435,2.1435,2.1424,2.1422,2.1426,2.1419,2.1426,2.1425,2.1424,2.1387,2.1383,2.1432,2.1432,2.1432,2.1432,2.1432,2.1432,2.1484,2.1495,2.1486,2.1494,2.1488,2.1491,2.149,2.1487,2.1483,2.1486,2.1486,2.1478,2.147,2.1468,2.1467,2.1464,2.1463,2.1473,2.1467,2.1432,2.1427,2.1421,2.1418,2.1474,2.1474,2.1504,2.1504,2.1504]}]]